Location: Burbank
(38.7788°N, 114.0429°W)
Time: 21:30:27
(UTC+00:00)

S-56A Canister/Altair - Pass Details

Date: 16 May 2026
Orbit: 632 x 2484 km, 38.9° (Epoch: 8 June)

Event Time Altitude Azimuth Distance (km) Brightness Sun altitude
Rises 05:47:15 0° 269° (W) 2,928 10.9 -27.1°
Reaches altitude 10° 05:49:29 10° 270° (W) 2,007 10.0 -27.3°
Enters shadow 05:52:19 40° 272° (W) 949 8.1 -27.5°
Maximum altitude 05:53:55 88° 357° (N) 673 - -27.7°
Drops below altitude 10° 05:59:08 10° 90° (E) 2,356 - -28.1°
Sets 06:01:57 0° 91° (E) 3,492 - -28.3°
